contact:dominique.lefevre@mio.osupytheas.fr,maurice.libes@osupytheas.fr
Project:EMSO http://www.emso-fr.org/EMSO-France
DOI:https://doi.org/10.17882/95264
Depth:1400m
Lat:42.803
Lon:6.05
TIME,TIME_QC,CNDC,CNDC_QC,PRES,PRES_QC,TEMP,TEMP_QC,TPOT,PSAL,OSAT,OSAT_QC,DOX1,DOX2,DOX_QC
units:,,Siemens per metre,,Decibars,,degree_Celsius,,degree_Celsius,,Percent,,Micromoles per litre,Micromoles per kilogram,
2017-08-26T19:01:00,2,4.538751,2,1409.804,2,13.1441,2,12.934,38.4854,74.85,2,193.3,187.83,2
2017-08-26T19:31:00,2,4.538696,2,1407.562,2,13.1449,2,12.9352,38.485,74.85,2,193.3,187.83,2
2017-08-26T20:00:59,2,4.53858,2,1407.529,2,13.1434,2,12.9337,38.4855,74.82,2,193.21,187.75,2
2017-08-26T20:31:00,2,4.538431,2,1407.528,2,13.1427,2,12.933,38.4847,74.85,2,193.29,187.83,2
2017-08-26T21:01:00,2,4.53818,2,1407.539,2,13.1407,2,12.931,38.4843,74.92,2,193.5,188.03,2
2017-08-26T21:30:59,2,4.538125,2,1407.539,2,13.1397,2,12.93,38.4848,74.94,2,193.55,188.08,2
2017-08-26T22:01:00,2,4.538227,2,1407.574,2,13.1408,2,12.9311,38.4847,74.91,2,193.47,188.0,2
2017-08-26T22:31:00,2,4.538363,2,1407.595,2,13.1419,2,12.9321,38.4849,74.85,2,193.3,187.83,2
2017-08-26T23:00:59,2,4.538472,2,1407.618,2,13.1424,2,12.9327,38.4854,74.77,2,193.1,187.64,2
2017-08-26T23:31:00,2,4.538669,2,1407.641,2,13.144,2,12.9343,38.4856,74.65,2,192.77,187.32,2
2017-08-27T00:01:00,2,4.53854,2,1407.697,2,13.1433,2,12.9335,38.4851,74.71,2,192.95,187.49,2
2017-08-27T00:30:59,2,4.538445,2,1407.709,2,13.1419,2,12.9322,38.4856,74.75,2,193.05,187.59,2
2017-08-27T01:01:00,2,4.538567,2,1407.752,2,13.1431,2,12.9333,38.4855,74.67,2,192.83,187.37,2
2017-08-27T01:31:00,2,4.538608,2,1407.776,2,13.1433,2,12.9336,38.4857,74.68,2,192.85,187.39,2
2017-08-27T02:00:59,2,4.539049,2,1407.765,2,13.1469,2,12.9371,38.4863,74.58,2,192.58,187.14,2
2017-08-27T02:31:00,2,4.539232,2,1407.752,2,13.1483,2,12.9385,38.4867,74.61,2,192.67,187.22,2
2017-08-27T03:01:00,2,4.539429,2,1407.741,2,13.1499,2,12.9401,38.4869,74.59,2,192.59,187.14,2
2017-08-27T03:30:59,2,4.539572,2,1407.752,2,13.1508,2,12.9409,38.4875,74.58,2,192.58,187.13,2
2017-08-27T04:01:00,2,4.539585,2,1407.73,2,13.1508,2,12.9409,38.4876,74.53,2,192.43,186.99,2
2017-08-27T04:31:00,2,4.539551,2,1407.719,2,13.1505,2,12.9406,38.4876,74.46,2,192.26,186.82,2
2017-08-27T05:00:59,2,4.539463,2,1407.697,2,13.1501,2,12.9402,38.4871,74.51,2,192.39,186.95,2
2017-08-27T05:31:00,2,4.539863,2,1407.675,2,13.1531,2,12.9432,38.488,74.41,2,192.12,186.69,2
2017-08-27T06:01:00,2,4.539476,2,1407.674,2,13.1504,2,12.9406,38.4869,74.45,2,192.24,186.81,2
2017-08-27T06:30:59,2,4.539327,2,1407.618,2,13.149,2,12.9392,38.4869,74.49,2,192.35,186.91,2
2017-08-27T07:01:00,2,4.539802,2,1407.618,2,13.1528,2,12.9429,38.4877,74.41,2,192.13,186.69,2
2017-08-27T07:31:00,2,4.539476,2,1407.572,2,13.1499,2,12.9401,38.4875,74.46,2,192.26,186.83,2
2017-08-27T08:00:59,2,4.539829,2,1407.55,2,13.1529,2,12.943,38.4879,74.43,2,192.18,186.74,2
2017-08-27T08:31:00,2,4.539877,2,1407.528,2,13.1529,2,12.943,38.4884,74.43,2,192.17,186.74,2
2017-08-27T09:01:00,2,4.540155,2,1407.538,2,13.1552,2,12.9453,38.4887,74.38,2,192.04,186.6,2
2017-08-27T09:30:59,2,4.539809,2,1407.518,2,13.1525,2,12.9427,38.4881,74.42,2,192.15,186.72,2
2017-08-27T10:01:00,2,4.5397,2,1407.55,2,13.1514,2,12.9416,38.4881,74.4,2,192.11,186.67,2
2017-08-27T10:31:00,2,4.539619,2,1407.55,2,13.151,2,12.9412,38.4877,74.51,2,192.38,186.94,2
2017-08-27T11:00:59,2,4.539694,2,1407.562,2,13.1513,2,12.9415,38.4881,74.52,2,192.4,186.96,2
2017-08-27T11:31:00,2,4.5397,2,1407.618,2,13.1519,2,12.942,38.4876,74.59,2,192.6,187.15,2
2017-08-27T12:01:00,2,4.539646,2,1407.641,2,13.1513,2,12.9415,38.4877,74.52,2,192.4,186.96,2
2017-08-27T12:30:59,2,4.539748,2,1407.674,2,13.1518,2,12.942,38.4881,74.51,2,192.38,186.93,2
2017-08-27T13:01:00,2,4.539904,2,1407.663,2,13.1533,2,12.9434,38.4881,74.45,2,192.22,186.78,2
2017-08-27T13:31:00,2,4.540047,2,1407.707,2,13.1543,2,12.9444,38.4884,74.38,2,192.04,186.61,2
2017-08-27T14:00:59,2,4.540101,2,1407.707,2,13.1549,2,12.945,38.4884,74.37,2,192.02,186.58,2
2017-08-27T14:31:00,2,4.540223,2,1407.73,2,13.1554,2,12.9455,38.489,74.37,2,192.01,186.58,2
2017-08-27T15:01:00,2,4.540393,2,1407.719,2,13.1567,2,12.9468,38.4893,74.32,2,191.88,186.45,2
2017-08-27T15:30:59,2,4.540366,2,1407.707,2,13.1566,2,12.9467,38.4892,74.3,2,191.81,186.38,2
2017-08-27T16:01:00,2,4.540407,2,1407.707,2,13.1569,2,12.9469,38.4893,74.33,2,191.9,186.47,2
2017-08-27T16:31:00,2,4.540271,2,1407.686,2,13.1559,2,12.946,38.489,74.34,2,191.93,186.51,2
2017-08-27T17:00:59,2,4.540128,2,1407.686,2,13.1546,2,12.9447,38.4889,74.38,2,192.04,186.61,2
2017-08-27T17:31:00,2,4.54021,2,1407.663,2,13.1552,2,12.9454,38.4891,74.36,2,191.98,186.55,2
2017-08-27T18:01:00,2,4.539904,2,1407.651,2,13.1529,2,12.943,38.4886,74.42,2,192.15,186.71,2
2017-08-27T18:30:59,2,4.539979,2,1407.664,2,13.1536,2,12.9438,38.4885,74.44,2,192.19,186.76,2
2017-08-27T19:01:00,2,4.539796,2,1407.64,2,13.1521,2,12.9422,38.4883,74.49,2,192.32,186.88,2
2017-08-27T19:31:00,2,4.539578,2,1407.606,2,13.1505,2,12.9407,38.4878,74.54,2,192.48,187.04,2
2017-08-27T20:00:59,2,4.539626,2,1407.595,2,13.1508,2,12.941,38.488,74.54,2,192.48,187.03,2
2017-08-27T20:31:00,2,4.539565,2,1407.574,2,13.1503,2,12.9405,38.4879,74.57,2,192.55,187.11,2
2017-08-27T21:01:00,2,4.539795,2,1407.562,2,13.1523,2,12.9425,38.4881,74.48,2,192.3,186.86,2
2017-08-27T21:30:59,2,4.539517,2,1407.55,2,13.1499,2,12.9401,38.4879,74.48,2,192.31,186.87,2
2017-08-27T22:01:00,2,4.539592,2,1407.573,2,13.1503,2,12.9405,38.4881,74.5,2,192.36,186.92,2
2017-08-27T22:31:00,2,4.539789,2,1407.562,2,13.1521,2,12.9423,38.4883,74.44,2,192.21,186.77,2
2017-08-27T23:00:59,2,4.539816,2,1407.573,2,13.1526,2,12.9427,38.488,74.42,2,192.15,186.72,2
2017-08-27T23:31:00,2,4.539585,2,1407.584,2,13.1508,2,12.941,38.4876,74.49,2,192.34,186.9,2
2017-08-28T00:01:00,2,4.539802,2,1407.628,2,13.1521,2,12.9422,38.4884,74.46,2,192.25,186.81,2
2017-08-28T00:30:59,2,4.539728,2,1407.651,2,13.1514,2,12.9415,38.4884,74.45,2,192.23,186.79,2
2017-08-28T01:01:00,2,4.539707,2,1407.663,2,13.1515,2,12.9417,38.488,74.5,2,192.35,186.91,2
2017-08-28T01:31:00,2,4.53966,2,1407.685,2,13.1512,2,12.9414,38.4878,74.49,2,192.33,186.89,2
2017-08-28T02:00:59,2,4.539762,2,1407.674,2,13.152,2,12.9422,38.488,74.48,2,192.3,186.86,2
2017-08-28T02:31:00,2,4.539721,2,1407.663,2,13.1513,2,12.9415,38.4884,74.49,2,192.33,186.89,2
2017-08-28T03:01:00,2,4.539775,2,1407.663,2,13.1524,2,12.9426,38.4878,74.47,2,192.28,186.84,2
2017-08-28T03:30:59,2,4.540033,2,1407.629,2,13.1538,2,12.9439,38.4889,74.41,2,192.12,186.68,2
2017-08-28T04:01:00,2,4.539918,2,1407.619,2,13.1529,2,12.9431,38.4886,74.38,2,192.05,186.62,2
2017-08-28T04:31:00,2,4.539918,2,1407.595,2,13.1529,2,12.9431,38.4886,74.43,2,192.17,186.73,2
2017-08-28T05:00:59,2,4.539918,2,1407.595,2,13.1528,2,12.9429,38.4888,74.4,2,192.1,186.66,2
2017-08-28T05:31:00,2,4.539714,2,1407.562,2,13.1516,2,12.9418,38.4881,74.43,2,192.18,186.75,2
2017-08-28T06:01:00,2,4.539571,2,1407.538,2,13.1507,2,12.9409,38.4876,74.47,2,192.29,186.85,2
2017-08-28T06:30:59,2,4.539537,2,1407.529,2,13.15,2,12.9402,38.488,74.47,2,192.29,186.85,2
2017-08-28T07:01:00,2,4.539388,2,1407.506,2,13.1489,2,12.9391,38.4876,74.49,2,192.34,186.9,2
2017-08-28T07:31:00,2,4.538994,2,1407.484,2,13.1459,2,12.9362,38.4869,74.49,2,192.37,186.92,2
2017-08-28T08:00:59,2,4.539117,2,1407.472,2,13.1474,2,12.9376,38.4866,74.5,2,192.38,186.94,2
2017-08-28T08:31:00,2,4.539232,2,1407.438,2,13.148,2,12.9383,38.4871,74.42,2,192.16,186.72,2
2017-08-28T09:01:00,2,4.539334,2,1407.438,2,13.1491,2,12.9393,38.487,74.4,2,192.1,186.67,2
2017-08-28T09:30:59,2,4.539361,2,1407.428,2,13.149,2,12.9392,38.4873,74.36,2,192.0,186.57,2
2017-08-28T10:01:00,2,4.539388,2,1407.438,2,13.1494,2,12.9396,38.4872,74.41,2,192.13,186.69,2
2017-08-28T10:31:00,2,4.539232,2,1407.428,2,13.1478,2,12.938,38.4873,74.5,2,192.38,186.94,2
2017-08-28T11:00:59,2,4.53911,2,1407.472,2,13.1467,2,12.9369,38.4872,74.56,2,192.53,187.08,2
2017-08-28T11:31:00,2,4.539178,2,1407.495,2,13.1475,2,12.9378,38.487,74.47,2,192.31,186.87,2
2017-08-28T12:01:00,2,4.539089,2,1407.528,2,13.1471,2,12.9373,38.4866,74.54,2,192.49,187.04,2
2017-08-28T12:30:59,2,4.538791,2,1407.55,2,13.1446,2,12.9348,38.4863,74.55,2,192.53,187.08,2
2017-08-28T13:01:00,2,4.538709,2,1407.574,2,13.144,2,12.9343,38.486,74.6,2,192.65,187.2,2
2017-08-28T13:31:00,2,4.538492,2,1407.606,2,13.1422,2,12.9325,38.4858,74.67,2,192.83,187.38,2
2017-08-28T14:00:59,2,4.538533,2,1407.608,2,13.1425,2,12.9327,38.4859,74.69,2,192.88,187.42,2
2017-08-28T14:31:00,2,4.53892,2,1407.608,2,13.1456,2,12.9358,38.4865,74.58,2,192.59,187.14,2
2017-08-28T15:01:00,2,4.538893,2,1407.619,2,13.1455,2,12.9357,38.4863,74.53,2,192.47,187.02,2
2017-08-28T15:30:59,2,4.538798,2,1407.629,2,13.1446,2,12.9348,38.4863,74.54,2,192.5,187.05,2
2017-08-28T16:01:00,2,4.538757,2,1407.608,2,13.1442,2,12.9344,38.4863,74.57,2,192.57,187.13,2
2017-08-28T16:31:00,2,4.538743,2,1407.584,2,13.1442,2,12.9345,38.4862,74.6,2,192.65,187.2,2
2017-08-28T17:00:59,2,4.538723,2,1407.573,2,13.144,2,12.9343,38.4862,74.62,2,192.7,187.25,2
2017-08-28T17:31:00,2,4.538743,2,1407.55,2,13.1442,2,12.9344,38.4862,74.62,2,192.7,187.25,2
2017-08-28T18:01:00,2,4.538736,2,1407.539,2,13.1442,2,12.9344,38.4862,74.6,2,192.65,187.2,2
2017-08-28T18:30:59,2,4.538736,2,1407.539,2,13.1441,2,12.9344,38.4862,74.55,2,192.53,187.08,2
2017-08-28T19:01:00,2,4.538675,2,1407.506,2,13.1435,2,12.9338,38.4862,74.62,2,192.7,187.25,2
2017-08-28T19:31:00,2,4.538526,2,1407.483,2,13.1426,2,12.9329,38.4857,74.66,2,192.8,187.35,2
2017-08-28T20:00:59,2,4.538526,2,1407.484,2,13.1428,2,12.933,38.4856,74.71,2,192.93,187.47,2
2017-08-28T20:31:00,2,4.53854,2,1407.451,2,13.1423,2,12.9326,38.4862,74.74,2,193.02,187.56,2
2017-08-28T21:01:00,2,4.538526,2,1407.438,2,13.1421,2,12.9324,38.4863,74.78,2,193.12,187.66,2
2017-08-28T21:30:59,2,4.538207,2,1407.427,2,13.1399,2,12.9302,38.4855,74.83,2,193.26,187.8,2
2017-08-28T22:01:00,2,4.538173,2,1407.438,2,13.1398,2,12.9301,38.4852,74.88,2,193.39,187.92,2
2017-08-28T22:31:00,2,4.538309,2,1407.451,2,13.1407,2,12.931,38.4856,74.81,2,193.21,187.74,2
2017-08-28T23:00:59,2,4.53822,2,1407.449,2,13.1393,2,12.9296,38.4862,74.9,2,193.43,187.96,2
2017-08-28T23:31:00,2,4.538302,2,1407.473,2,13.1403,2,12.9306,38.4859,74.81,2,193.21,187.74,2
2017-08-29T00:01:00,2,4.538438,2,1407.506,2,13.1415,2,12.9318,38.486,74.79,2,193.15,187.69,2
2017-08-29T00:30:59,2,4.538492,2,1407.528,2,13.1417,2,12.932,38.4863,74.77,2,193.1,187.64,2
2017-08-29T01:01:00,2,4.538329,2,1407.574,2,13.1407,2,12.931,38.4857,74.8,2,193.18,187.72,2
2017-08-29T01:31:00,2,4.538343,2,1407.573,2,13.141,2,12.9312,38.4856,74.86,2,193.33,187.86,2
2017-08-29T02:00:59,2,4.538288,2,1407.606,2,13.1404,2,12.9307,38.4857,74.86,2,193.33,187.87,2
2017-08-29T02:31:00,2,4.538282,2,1407.618,2,13.14,2,12.9303,38.4859,74.86,2,193.33,187.86,2
2017-08-29T03:01:00,2,4.538343,2,1407.606,2,13.1406,2,12.9309,38.486,74.9,2,193.43,187.96,2
2017-08-29T03:30:59,2,4.538316,2,1407.618,2,13.1406,2,12.9309,38.4857,74.86,2,193.33,187.86,2
2017-08-29T04:01:00,2,4.538377,2,1407.608,2,13.141,2,12.9312,38.4859,74.88,2,193.38,187.91,2
2017-08-29T04:31:00,2,4.538159,2,1407.585,2,13.1396,2,12.9298,38.4853,74.93,2,193.51,188.04,2
2017-08-29T05:00:59,2,4.538187,2,1407.573,2,13.1394,2,12.9297,38.4857,74.94,2,193.56,188.08,2
2017-08-29T05:31:00,2,4.538275,2,1407.55,2,13.1403,2,12.9305,38.4857,74.9,2,193.43,187.96,2
2017-08-29T06:01:00,2,4.538363,2,1407.528,2,13.1407,2,12.931,38.4861,74.85,2,193.3,187.83,2
2017-08-29T06:30:59,2,4.538336,2,1407.517,2,13.141,2,12.9312,38.4856,74.79,2,193.16,187.69,2
2017-08-29T07:01:00,2,4.538411,2,1407.494,2,13.1414,2,12.9317,38.4859,74.83,2,193.25,187.79,2
2017-08-29T07:31:00,2,4.538886,2,1407.472,2,13.1447,2,12.935,38.4871,74.75,2,193.03,187.57,2
2017-08-29T08:00:59,2,4.538845,2,1407.461,2,13.1445,2,12.9347,38.487,74.78,2,193.11,187.64,2
2017-08-29T08:31:00,2,4.538899,2,1407.439,2,13.1449,2,12.9352,38.487,74.66,2,192.81,187.36,2
2017-08-29T09:01:00,2,4.538702,2,1407.416,2,13.1437,2,12.934,38.4864,74.72,2,192.96,187.51,2
2017-08-29T09:30:59,2,4.538546,2,1407.416,2,13.1424,2,12.9327,38.4862,74.7,2,192.93,187.47,2
2017-08-29T10:01:00,2,4.538594,2,1407.417,2,13.1428,2,12.9331,38.4863,74.73,2,193.0,187.54,2
2017-08-29T10:31:00,2,4.53856,2,1407.416,2,13.1428,2,12.9331,38.4859,74.76,2,193.07,187.61,2
2017-08-29T11:00:59,2,4.53875,2,1407.438,2,13.1439,2,12.9342,38.4866,74.7,2,192.92,187.46,2
2017-08-29T11:31:00,2,4.538818,2,1407.438,2,13.1444,2,12.9346,38.4868,74.74,2,193.01,187.55,2
2017-08-29T12:01:00,2,4.538974,2,1407.462,2,13.1456,2,12.9359,38.487,74.64,2,192.75,187.3,2
2017-08-29T12:30:59,2,4.538906,2,1407.494,2,13.1452,2,12.9354,38.4868,74.64,2,192.74,187.29,2
2017-08-29T13:01:00,2,4.538716,2,1407.54,2,13.1433,2,12.9336,38.4868,74.67,2,192.84,187.39,2
2017-08-29T13:31:00,2,4.538506,2,1407.55,2,13.1413,2,12.9316,38.4869,74.78,2,193.12,187.66,2
2017-08-29T14:00:59,2,4.538506,2,1407.596,2,13.1422,2,12.9325,38.4859,74.84,2,193.27,187.81,2
2017-08-29T14:31:00,2,4.538431,2,1407.606,2,13.1411,2,12.9314,38.4863,74.84,2,193.27,187.81,2
2017-08-29T15:01:00,2,4.538465,2,1407.617,2,13.1414,2,12.9316,38.4864,74.83,2,193.25,187.78,2
2017-08-29T15:30:59,2,4.538601,2,1407.629,2,13.1425,2,12.9327,38.4865,74.87,2,193.34,187.87,2
2017-08-29T16:01:00,2,4.538567,2,1407.618,2,13.1419,2,12.9322,38.4868,74.86,2,193.32,187.85,2
2017-08-29T16:31:00,2,4.538445,2,1407.618,2,13.1414,2,12.9316,38.4862,74.87,2,193.35,187.88,2
2017-08-29T17:00:59,2,4.538227,2,1407.606,2,13.1399,2,12.9302,38.4856,74.89,2,193.41,187.94,2
2017-08-29T17:31:00,2,4.538214,2,1407.574,2,13.1397,2,12.93,38.4857,74.9,2,193.44,187.96,2
2017-08-29T18:01:00,2,4.538105,2,1407.574,2,13.1387,2,12.929,38.4856,74.94,2,193.54,188.07,2
2017-08-29T18:30:59,2,4.537963,2,1407.551,2,13.1377,2,12.928,38.4853,74.94,2,193.55,188.07,2
2017-08-29T19:01:00,2,4.537956,2,1407.528,2,13.1375,2,12.9278,38.4854,74.92,2,193.5,188.02,2
2017-08-29T19:31:00,2,4.537929,2,1407.517,2,13.1375,2,12.9278,38.4852,74.94,2,193.55,188.07,2
2017-08-29T20:00:59,2,4.53801,2,1407.494,2,13.1382,2,12.9285,38.4852,74.93,2,193.52,188.05,2
2017-08-29T20:31:00,2,4.538064,2,1407.494,2,13.1384,2,12.9287,38.4856,74.92,2,193.49,188.02,2
2017-08-29T21:01:00,2,4.538064,2,1407.473,2,13.1385,2,12.9288,38.4855,74.91,2,193.47,188.0,2
2017-08-29T21:30:59,2,4.538071,2,1407.472,2,13.1386,2,12.929,38.4854,74.95,2,193.56,188.09,2
2017-08-29T22:01:00,2,4.538173,2,1407.451,2,13.1393,2,12.9296,38.4858,74.85,2,193.31,187.84,2
2017-08-29T22:31:00,2,4.538241,2,1407.438,2,13.1399,2,12.9302,38.4858,74.8,2,193.19,187.72,2
2017-08-29T23:00:59,2,4.538125,2,1407.461,2,13.1393,2,12.9296,38.4853,74.85,2,193.32,187.85,2
2017-08-29T23:31:00,2,4.538017,2,1407.473,2,13.1382,2,12.9285,38.4853,74.88,2,193.4,187.93,2
2017-08-30T00:01:00,2,4.537861,2,1407.483,2,13.1372,2,12.9275,38.4849,74.88,2,193.41,187.93,2
2017-08-30T00:30:59,2,4.537786,2,1407.506,2,13.1367,2,12.927,38.4846,74.87,2,193.39,187.92,2
2017-08-30T01:01:00,2,4.537779,2,1407.528,2,13.1365,2,12.9269,38.4847,74.88,2,193.41,187.94,2
2017-08-30T01:31:00,2,4.537895,2,1407.55,2,13.1372,2,12.9276,38.4851,74.86,2,193.35,187.88,2
2017-08-30T02:00:59,2,4.537949,2,1407.562,2,13.138,2,12.9283,38.4848,74.8,2,193.2,187.74,2
2017-08-30T02:31:00,2,4.537908,2,1407.596,2,13.1377,2,12.928,38.4847,74.88,2,193.4,187.93,2
2017-08-30T03:01:00,2,4.537732,2,1407.608,2,13.1362,2,12.9265,38.4846,74.95,2,193.58,188.11,2
2017-08-30T03:30:59,2,4.537644,2,1407.608,2,13.1357,2,12.926,38.4842,75.0,2,193.71,188.23,2
2017-08-30T04:01:00,2,4.537644,2,1407.618,2,13.1356,2,12.926,38.4843,74.93,2,193.54,188.06,2
2017-08-30T04:31:00,2,4.537664,2,1407.596,2,13.1357,2,12.926,38.4844,74.89,2,193.44,187.97,2
2017-08-30T05:00:59,2,4.537535,2,1407.584,2,13.1346,2,12.9249,38.4843,74.9,2,193.47,188.0,2
2017-08-30T05:31:00,2,4.537358,2,1407.574,2,13.1331,2,12.9235,38.4841,75.03,2,193.8,188.32,2
2017-08-30T06:01:00,2,4.537189,2,1407.539,2,13.1321,2,12.9224,38.4836,75.11,2,194.03,188.54,2
2017-08-30T06:30:59,2,4.537196,2,1407.518,2,13.1321,2,12.9225,38.4836,75.09,2,193.95,188.47,2
2017-08-30T07:01:00,2,4.537277,2,1407.494,2,13.1326,2,12.923,38.4839,75.09,2,193.97,188.49,2
2017-08-30T07:31:00,2,4.537481,2,1407.483,2,13.134,2,12.9243,38.4845,75.1,2,193.99,188.5,2
2017-08-30T08:00:59,2,4.537494,2,1407.451,2,13.134,2,12.9244,38.4845,75.04,2,193.82,188.33,2
2017-08-30T08:31:00,2,4.537406,2,1407.439,2,13.1332,2,12.9236,38.4845,75.06,2,193.87,188.39,2
2017-08-30T09:01:00,2,4.537392,2,1407.438,2,13.1331,2,12.9235,38.4845,75.08,2,193.94,188.46,2
2017-08-30T09:30:59,2,4.537419,2,1407.417,2,13.134,2,12.9243,38.4839,75.07,2,193.92,188.43,2
2017-08-30T10:01:00,2,4.537399,2,1407.416,2,13.1337,2,12.924,38.484,75.05,2,193.84,188.36,2
2017-08-30T10:31:00,2,4.537406,2,1407.407,2,13.1335,2,12.9238,38.4843,75.05,2,193.84,188.36,2
2017-08-30T11:00:59,2,4.537474,2,1407.438,2,13.1341,2,12.9245,38.4843,75.03,2,193.79,188.31,2
2017-08-30T11:31:00,2,4.537494,2,1407.427,2,13.1342,2,12.9246,38.4843,75.01,2,193.74,188.26,2
2017-08-30T12:01:00,2,4.537508,2,1407.462,2,13.134,2,12.9244,38.4847,75.02,2,193.77,188.29,2
2017-08-30T12:30:59,2,4.537562,2,1407.495,2,13.1343,2,12.9247,38.4849,75.0,2,193.71,188.23,2
2017-08-30T13:01:00,2,4.537515,2,1407.518,2,13.1339,2,12.9242,38.4848,74.97,2,193.65,188.17,2
2017-08-30T13:31:00,2,4.537535,2,1407.538,2,13.1344,2,12.9247,38.4845,74.96,2,193.62,188.14,2
2017-08-30T14:00:59,2,4.537447,2,1407.574,2,13.1337,2,12.9241,38.4843,74.99,2,193.7,188.22,2
2017-08-30T14:31:00,2,4.537331,2,1407.585,2,13.1328,2,12.9231,38.4842,75.05,2,193.85,188.37,2
2017-08-30T15:01:00,2,4.537338,2,1407.595,2,13.1328,2,12.9231,38.4843,75.14,2,194.09,188.6,2
2017-08-30T15:30:59,2,4.537399,2,1407.641,2,13.1335,2,12.9238,38.4841,75.07,2,193.9,188.41,2
2017-08-30T16:01:00,2,4.537345,2,1407.641,2,13.133,2,12.9233,38.4841,75.08,2,193.94,188.46,2
2017-08-30T16:31:00,2,4.537481,2,1407.629,2,13.1338,2,12.9241,38.4845,75.0,2,193.72,188.24,2
2017-08-30T17:00:59,2,4.537589,2,1407.63,2,13.1349,2,12.9253,38.4845,74.99,2,193.69,188.21,2
2017-08-30T17:31:00,2,4.537671,2,1407.595,2,13.1354,2,12.9257,38.4848,74.9,2,193.46,187.99,2
2017-08-30T18:01:00,2,4.537616,2,1407.596,2,13.1352,2,12.9255,38.4845,74.91,2,193.49,188.02,2
2017-08-30T18:30:59,2,4.537678,2,1407.585,2,13.1354,2,12.9257,38.4848,74.91,2,193.49,188.02,2
2017-08-30T19:01:00,2,4.537793,2,1407.563,2,13.1366,2,12.9269,38.4847,74.81,2,193.21,187.75,2
2017-08-30T19:31:00,2,4.537603,2,1407.517,2,13.1354,2,12.9257,38.4842,74.91,2,193.49,188.02,2
2017-08-30T20:00:59,2,4.537759,2,1407.517,2,13.1363,2,12.9267,38.4847,74.86,2,193.36,187.89,2
2017-08-30T20:31:00,2,4.537827,2,1407.483,2,13.1371,2,12.9274,38.4846,74.82,2,193.24,187.77,2
2017-08-30T21:01:00,2,4.537637,2,1407.462,2,13.1355,2,12.9258,38.4844,74.89,2,193.44,187.97,2
2017-08-30T21:30:59,2,4.537542,2,1407.462,2,13.1345,2,12.9249,38.4845,74.97,2,193.64,188.17,2
2017-08-30T22:01:00,2,4.537542,2,1407.471,2,13.1349,2,12.9252,38.4841,74.98,2,193.67,188.19,2
2017-08-30T22:31:00,2,4.537515,2,1407.461,2,13.1342,2,12.9246,38.4845,74.99,2,193.69,188.21,2
2017-08-30T23:00:59,2,4.537494,2,1407.449,2,13.1342,2,12.9245,38.4844,74.99,2,193.69,188.21,2
2017-08-30T23:31:00,2,4.537494,2,1407.449,2,13.1338,2,12.9242,38.4848,75.0,2,193.72,188.24,2
2017-08-31T00:01:00,2,4.537562,2,1407.461,2,13.1344,2,12.9247,38.4848,74.93,2,193.54,188.07,2
2017-08-31T00:30:59,2,4.537474,2,1407.483,2,13.134,2,12.9244,38.4843,75.02,2,193.77,188.28,2
2017-08-31T01:01:00,2,4.537569,2,1407.506,2,13.1347,2,12.925,38.4846,74.98,2,193.67,188.19,2
2017-08-31T01:31:00,2,4.537576,2,1407.529,2,13.1345,2,12.9249,38.4848,74.91,2,193.5,188.02,2
2017-08-31T02:00:59,2,4.537549,2,1407.562,2,13.1344,2,12.9247,38.4847,74.92,2,193.52,188.05,2
2017-08-31T02:31:00,2,4.537576,2,1407.563,2,13.1344,2,12.9247,38.4849,74.92,2,193.52,188.05,2
2017-08-31T03:01:00,2,4.537555,2,1407.573,2,13.1341,2,12.9244,38.485,74.92,2,193.52,188.05,2
2017-08-31T03:30:59,2,4.537616,2,1407.584,2,13.1349,2,12.9252,38.4848,74.89,2,193.45,187.97,2
2017-08-31T04:01:00,2,4.537603,2,1407.595,2,13.1348,2,12.9251,38.4847,74.9,2,193.47,188.0,2
2017-08-31T04:31:00,2,4.537494,2,1407.585,2,13.1337,2,12.9241,38.4848,74.99,2,193.69,188.22,2
2017-08-31T05:00:59,2,4.537562,2,1407.574,2,13.1345,2,12.9249,38.4846,74.99,2,193.69,188.22,2
2017-08-31T05:31:00,2,4.537759,2,1407.562,2,13.1361,2,12.9264,38.485,74.84,2,193.31,187.84,2
2017-08-31T06:01:00,2,4.537786,2,1407.551,2,13.1364,2,12.9267,38.4849,74.79,2,193.17,187.7,2
2017-08-31T06:30:59,2,4.5378,2,1407.55,2,13.1363,2,12.9266,38.4852,74.79,2,193.17,187.7,2
2017-08-31T07:01:00,2,4.537759,2,1407.518,2,13.1358,2,12.9262,38.4852,74.81,2,193.21,187.75,2
2017-08-31T07:31:00,2,4.537711,2,1407.495,2,13.136,2,12.9263,38.4846,74.84,2,193.29,187.82,2
2017-08-31T08:00:59,2,4.537752,2,1407.472,2,13.1361,2,12.9264,38.485,74.82,2,193.24,187.77,2
2017-08-31T08:31:00,2,4.537711,2,1407.461,2,13.1356,2,12.9259,38.4851,74.84,2,193.31,187.85,2
2017-08-31T09:01:00,2,4.537684,2,1407.438,2,13.1358,2,12.9262,38.4845,74.85,2,193.32,187.85,2
2017-08-31T09:30:59,2,4.537671,2,1407.427,2,13.1354,2,12.9257,38.4849,74.85,2,193.34,187.87,2
2017-08-31T10:01:00,2,4.53765,2,1407.438,2,13.1353,2,12.9256,38.4848,74.84,2,193.29,187.83,2
2017-08-31T10:31:00,2,4.537643,2,1407.439,2,13.1354,2,12.9257,38.4846,74.88,2,193.42,187.95,2
2017-08-31T11:00:59,2,4.537705,2,1407.427,2,13.1358,2,12.9262,38.4847,74.84,2,193.29,187.82,2
2017-08-31T11:31:00,2,4.53765,2,1407.448,2,13.1351,2,12.9255,38.4849,74.84,2,193.32,187.85,2
2017-08-31T12:01:00,2,4.537684,2,1407.439,2,13.1355,2,12.9258,38.4849,74.85,2,193.34,187.87,2
2017-08-31T12:30:59,2,4.537705,2,1407.449,2,13.1357,2,12.926,38.4849,74.84,2,193.29,187.82,2
2017-08-31T13:01:00,2,4.537759,2,1407.472,2,13.1361,2,12.9265,38.485,74.83,2,193.27,187.8,2
2017-08-31T13:31:00,2,4.537752,2,1407.518,2,13.136,2,12.9263,38.485,74.81,2,193.22,187.75,2
2017-08-31T14:00:59,2,4.537725,2,1407.528,2,13.1359,2,12.9262,38.4848,74.82,2,193.24,187.78,2
2017-08-31T14:31:00,2,4.537684,2,1407.573,2,13.1355,2,12.9258,38.4848,74.83,2,193.27,187.8,2
2017-08-31T15:01:00,2,4.537698,2,1407.595,2,13.1357,2,12.926,38.4847,74.86,2,193.34,187.88,2
2017-08-31T15:30:59,2,4.537576,2,1407.618,2,13.1345,2,12.9248,38.4848,74.91,2,193.5,188.02,2
2017-08-31T16:01:00,2,4.537501,2,1407.64,2,13.134,2,12.9243,38.4846,74.96,2,193.62,188.15,2
2017-08-31T16:31:00,2,4.537487,2,1407.64,2,13.1337,2,12.924,38.4847,74.96,2,193.62,188.15,2
2017-08-31T17:00:59,2,4.537481,2,1407.64,2,13.1339,2,12.9242,38.4845,74.96,2,193.62,188.15,2
2017-08-31T17:31:00,2,4.537501,2,1407.63,2,13.1338,2,12.9241,38.4847,74.93,2,193.55,188.08,2
2017-08-31T18:01:00,2,4.537528,2,1407.618,2,13.1342,2,12.9246,38.4846,74.93,2,193.55,188.07,2
2017-08-31T18:30:59,2,4.537521,2,1407.596,2,13.1344,2,12.9247,38.4844,74.93,2,193.55,188.07,2
2017-08-31T19:01:00,2,4.537644,2,1407.584,2,13.1354,2,12.9257,38.4846,74.86,2,193.37,187.9,2
2017-08-31T19:31:00,2,4.53765,2,1407.55,2,13.1352,2,12.9255,38.4848,74.83,2,193.27,187.81,2
2017-08-31T20:00:59,2,4.537657,2,1407.529,2,13.1349,2,12.9253,38.4851,74.83,2,193.27,187.8,2
2017-08-31T20:31:00,2,4.537644,2,1407.517,2,13.1354,2,12.9257,38.4846,74.83,2,193.27,187.8,2
2017-08-31T21:01:00,2,4.537616,2,1407.506,2,13.1348,2,12.9251,38.4849,74.86,2,193.37,187.9,2
2017-08-31T21:30:59,2,4.537603,2,1407.483,2,13.1349,2,12.9253,38.4847,74.87,2,193.4,187.92,2
2017-08-31T22:01:00,2,4.537576,2,1407.483,2,13.135,2,12.9254,38.4843,74.89,2,193.45,187.98,2
2017-08-31T22:31:00,2,4.53761,2,1407.449,2,13.135,2,12.9254,38.4847,74.89,2,193.44,187.97,2
2017-08-31T23:00:59,2,4.53761,2,1407.461,2,13.1349,2,12.9253,38.4847,74.85,2,193.32,187.85,2
2017-08-31T23:31:00,2,4.537576,2,1407.438,2,13.1345,2,12.9249,38.4848,74.85,2,193.33,187.86,2
2017-09-01T00:01:00,2,4.537548,2,1407.438,2,13.1344,2,12.9247,38.4847,74.9,2,193.47,188.0,2
2017-09-01T00:30:59,2,4.537508,2,1407.472,2,13.134,2,12.9244,38.4847,74.89,2,193.45,187.98,2
2017-09-01T01:01:00,2,4.537501,2,1407.462,2,13.1339,2,12.9242,38.4847,74.95,2,193.59,188.12,2